Back to catalog

FENGYUN 1C DEB

AliveSSO
NORAD 29817·DEBRIS·🇨🇳 China

Launched May 10, 1999 from Taiyuan Satellite Launch Center

Loading…

Next Passes (next 24 hours)

TLE

FreshSource: Space-Track

Epoch: Sep 14, 2026, 09:59 UTC

1 29817U 99025DK  26257.41611713  .00000360  00000-0  20924-3 0  9997
2 29817  98.5815 240.5212 0011146 308.1978 206.6302 14.14576904 12902

Track FENGYUN 1C DEB in real time with AllMySat

Download on the App Store